Wind_Speed
40 40 39 38 38 37 36 35 35 34 34 34 34 33 33 33 34 33 33 33 33 33 33 33 33 34 34 35 35 36 37 37 37 37 38 38 38 38
41 41 41 40 39 38 37 37 37 36 36 35 36 36 35 35 35 35 35 34 34 35 35 35 35 36 36 37 37 38 38 39 39 39 39 39 39 39
42 42 42 42 41 40 40 39 39 39 39 38 38 38 38 37 37 37 37 36 36 37 37 37 38 38 38 39 39 40 40 40 40 40 40 40 40 40
44 43 43 44 44 43 42 41 41 41 41 40 40 40 40 40 40 39 39 39 39 39 39 40 40 40 40 40 41 41 41 41 41 41 42 42 42 42
45 45 44 45 45 45 44 43 42 42 42 42 42 42 42 42 42 41 41 41 41 41 41 41 42 42 42 42 42 43 43 43 43 43 44 44 44 44
47 46 46 46 46 46 46 45 44 43 43 43 43 43 43 42 43 43 43 43 42 42 43 43 43 43 44 44 44 44 44 45 45 45 45 45 45 46
47 47 47 47 47 47 47 46 46 45 45 44 44 44 44 43 43 43 43 43 44 44 44 45 45 45 45 45 45 45 46 46 46 46 46 46 46 46
48 48 48 48 47 47 47 47 47 47 46 46 45 45 45 45 44 44 44 44 45 46 46 46 46 46 46 46 46 46 47 47 47 46 46 47 47 47
49 48 48 47 48 48 48 48 48 49 49 48 47 46 46 46 46 46 46 46 47 47 47 47 47 47 47 47 47 47 47 47 47 47 47 48 48 49
50 49 48 48 49 49 49 49 49 50 49 49 49 48 48 48 48 48 48 49 48 48 48 48 48 48 48 48 48 48 48 48 48 48 49 49 49 50
51 50 49 49 49 50 50 49 49 50 50 50 50 50 49 49 49 50 50 50 49 49 49 49 49 49 49 49 49 49 49 49 49 50 50 51 51 52
52 51 51 51 51 51 50 50 50 50 50 50 50 50 50 50 50 50 50 50 49 49 50 50 50 50 49 49 49 50 50 50 51 52 52 53 54 54
52 52 53 52 52 52 52 51 51 51 50 50 50 50 50 50 51 51 51 50 50 50 50 50 51 51 51 50 50 51 51 52 52 53 54 55 56 56
53 53 53 53 53 53 53 52 52 52 51 51 51 50 50 50 50 51 52 52 52 52 52 52 52 52 52 51 51 51 52 53 54 55 56 56 57 57
53 53 53 53 53 53 52 52 53 53 52 52 52 52 52 52 52 53 53 53 53 53 53 53 53 53 53 53 53 53 54 54 56 56 57 58 58 58
53 53 53 53 53 53 53 53 53 53 53 53 53 53 53 53 53 53 54 54 54 54 54 53 53 53 54 54 55 55 56 57 57 58 58 59 59 58
52 52 53 53 52 52 53 53 53 53 53 53 53 53 53 54 54 54 54 54 54 54 54 54 54 54 55 55 56 57 58 59 58 58 58 58 58 58
50 51 51 51 51 51 51 51 51 51 51 51 52 52 53 53 53 54 54 54 54 54 54 54 55 55 56 56 58 59 59 59 59 58 58 58 57 57
50 49 49 49 49 49 49 49 50 50 50 50 50 50 50 51 52 52 53 53 53 54 54 55 56 57 57 58 58 59 59 59 59 59 58 57 56 54
49 49 48 48 48 48 48 48 48 48 48 48 48 48 49 49 50 51 52 52 53 54 54 55 56 57 58 58 58 57 58 58 58 57 55 54 52 51
47 47 47 46 46 46 46 46 46 46 47 47 47 47 48 49 50 50 51 52 53 54 54 55 56 57 57 56 55 55 55 56 55 54 52 51 50 50
44 44 44 45 45 45 45 45 46 46 46 46 47 48 49 49 49 50 51 52 53 53 53 54 54 54 53 53 52 52 52 52 52 51 51 50 50 49
43 43 43 44 44 45 45 45 45 45 46 46 47 48 48 49 49 50 51 51 51 51 51 51 51 51 51 51 51 50 50 49 50 50 50 50 49 49
Wind_Direction
252 253 254 255 257 258 259 260 262 263 264 266 267 268 269 269 271 273 274 275 277 278 280 282 282 284 285 286 287 287 288 289 290 291 290 291 293 293
252 253 253 254 255 256 257 259 261 263 263 264 266 267 268 269 271 272 274 275 276 277 279 280 282 284 285 286 286 287 288 289 289 290 290 291 291 292
252 253 253 253 254 256 257 259 261 262 263 264 265 266 268 270 271 272 274 275 276 276 278 279 282 284 285 286 287 287 288 289 290 290 291 291 291 291
253 254 254 254 255 256 258 259 260 261 263 263 264 266 267 270 271 272 273 274 275 276 277 279 281 283 284 285 286 287 288 289 290 291 291 291 291 292
253 254 255 256 256 257 258 259 260 261 263 264 265 266 267 268 270 272 273 274 275 276 278 280 282 283 284 285 286 287 288 289 289 290 291 291 291 292
253 254 255 257 258 258 258 259 260 262 263 264 265 266 267 268 270 271 272 273 274 276 278 280 282 283 284 285 286 287 288 288 289 290 290 290 290 291
253 254 255 256 257 258 259 260 261 262 263 265 266 267 267 269 270 271 272 274 274 276 277 279 281 283 284 285 287 287 288 289 289 289 289 290 289 289
254 255 255 256 257 258 259 260 262 263 263 265 266 267 267 269 270 272 273 274 275 276 277 279 281 284 285 286 286 287 288 288 288 289 289 289 289 289
254 254 255 256 257 257 259 260 262 263 264 265 266 267 267 268 270 272 273 275 276 277 278 279 281 284 285 285 286 286 287 287 288 288 288 289 289 290
254 255 255 256 257 258 260 261 262 263 264 264 265 266 267 268 269 271 274 275 276 277 277 279 281 282 284 284 285 286 286 287 287 288 288 289 290 291
254 255 256 257 258 259 260 261 262 263 263 264 265 266 267 268 270 272 273 274 275 276 277 279 280 281 283 284 284 285 286 287 287 288 289 289 290 291
254 256 257 258 258 259 260 262 262 263 263 264 265 266 267 268 269 271 273 274 275 276 277 278 280 281 282 283 284 285 286 287 287 288 289 290 291 291
256 257 257 258 259 260 261 261 262 262 262 263 264 265 266 268 270 271 272 273 274 275 277 278 279 280 282 283 283 285 286 286 287 288 289 290 291 291
256 257 258 258 259 260 261 262 262 262 262 263 264 265 266 268 269 270 272 273 274 275 276 278 279 281 281 282 283 284 285 287 288 289 289 290 291 292
255 256 257 259 259 260 261 261 262 262 262 263 264 265 266 267 269 269 271 273 274 275 277 278 279 281 281 282 283 284 285 287 288 289 290 290 291 291
255 256 257 258 259 259 259 261 261 262 262 263 264 265 267 267 269 270 272 273 274 275 277 278 279 281 282 283 284 285 286 287 288 289 289 290 291 291
255 256 257 258 259 259 260 261 261 262 262 263 264 265 266 267 269 270 271 273 274 275 275 277 279 281 282 284 285 286 287 288 289 289 289 290 291 291
255 256 257 258 258 259 260 261 262 262 263 264 265 266 267 268 269 270 271 272 273 274 275 277 279 281 282 284 286 287 287 288 288 288 289 289 290 291
255 256 256 257 258 259 260 261 262 263 264 265 266 266 267 268 270 270 271 272 273 274 276 278 280 281 283 284 285 286 287 287 288 288 288 289 289 289
255 256 256 257 257 258 260 261 262 263 264 265 266 267 268 269 270 271 272 273 274 276 278 279 281 282 284 285 285 286 287 288 288 289 288 287 288 289
254 255 256 256 257 258 259 261 262 263 264 265 266 267 268 270 272 273 274 275 277 278 280 281 282 284 284 285 286 286 287 288 289 289 288 287 287 289
253 254 255 256 256 258 259 261 262 264 265 266 268 269 270 271 273 274 276 277 279 280 281 282 282 283 284 285 286 287 288 288 288 288 288 288 289 289
252 253 255 256 257 258 260 262 264 265 267 268 269 270 271 272 274 275 277 278 279 280 281 282 282 283 284 286 287 288 289 289 289 289 289 289 290 291
Height
5774 5776 5778 5780 5781 5783 5784 5785 5786 5786 5786 5786 5786 5786 5786 5786 5785 5785 5785 5784 5783 5782 5781 5780 5779 5778 5776 5774 5772 5770 5768 5766 5763 5761 5758 5755 5753 5750
5765 5767 5769 5771 5773 5774 5775 5776 5776 5777 5778 5778 5778 5778 5777 5777 5777 5777 5776 5776 5775 5774 5773 5772 5771 5770 5768 5766 5764 5761 5759 5757 5754 5752 5749 5746 5744 5741
5755 5757 5759 5761 5763 5764 5765 5766 5767 5768 5769 5770 5769 5769 5768 5768 5768 5768 5767 5767 5767 5766 5765 5764 5762 5761 5759 5757 5754 5752 5750 5747 5744 5742 5739 5737 5734 5731
5745 5747 5749 5751 5753 5754 5755 5756 5757 5758 5759 5760 5760 5760 5760 5759 5759 5759 5758 5758 5757 5757 5756 5754 5753 5751 5749 5747 5745 5742 5740 5737 5735 5732 5729 5726 5724 5721
5735 5737 5739 5740 5742 5743 5745 5746 5747 5748 5749 5749 5750 5750 5750 5750 5749 5749 5748 5748 5747 5747 5746 5744 5743 5741 5739 5737 5734 5732 5729 5727 5724 5721 5718 5715 5713 5710
5724 5726 5728 5730 5731 5732 5734 5735 5736 5737 5738 5739 5739 5739 5739 5739 5739 5739 5738 5737 5737 5736 5735 5734 5732 5730 5728 5726 5724 5721 5718 5716 5713 5710 5707 5704 5701 5698
5712 5714 5716 5718 5720 5721 5723 5724 5725 5726 5727 5727 5728 5728 5728 5728 5728 5728 5727 5727 5726 5725 5724 5723 5721 5719 5717 5715 5712 5709 5707 5704 5701 5698 5695 5692 5689 5686
5700 5702 5704 5706 5708 5710 5711 5712 5714 5715 5716 5716 5717 5717 5717 5717 5717 5717 5716 5716 5715 5715 5713 5711 5709 5707 5705 5703 5701 5698 5695 5692 5689 5686 5683 5680 5677 5674
5688 5690 5692 5694 5696 5698 5699 5700 5702 5702 5704 5705 5705 5705 5705 5706 5705 5705 5704 5704 5703 5702 5700 5699 5697 5695 5693 5691 5689 5686 5683 5680 5677 5674 5671 5668 5665 5662
5675 5678 5680 5682 5684 5685 5687 5688 5689 5690 5691 5692 5693 5693 5693 5693 5693 5693 5692 5691 5691 5689 5688 5687 5685 5683 5681 5679 5676 5674 5671 5668 5665 5662 5659 5655 5652 5649
5663 5665 5668 5670 5672 5673 5674 5676 5677 5677 5678 5679 5679 5680 5680 5680 5680 5680 5679 5679 5678 5677 5675 5674 5673 5671 5669 5667 5664 5661 5658 5655 5652 5649 5646 5642 5638 5635
5650 5652 5655 5657 5658 5659 5661 5662 5663 5664 5664 5665 5666 5666 5667 5667 5667 5667 5666 5666 5665 5665 5663 5661 5660 5657 5657 5655 5651 5648 5645 5642 5639 5636 5632 5628 5624 5620
5636 5639 5641 5643 5644 5646 5647 5648 5649 5650 5650 5651 5652 5653 5653 5654 5654 5653 5653 5652 5652 5651 5650 5648 5646 5644 5642 5641 5639 5635 5632 5629 5625 5622 5618 5614 5609 5605
5622 5625 5627 5629 5630 5632 5633 5634 5635 5636 5637 5638 5639 5640 5640 5640 5640 5640 5639 5639 5638 5637 5635 5634 5632 5631 5629 5627 5625 5622 5619 5615 5611 5607 5604 5599 5595 5589
5608 5611 5613 5614 5616 5617 5619 5620 5621 5622 5623 5624 5625 5626 5626 5627 5626 5626 5625 5625 5624 5623 5621 5619 5618 5616 5614 5612 5610 5608 5604 5601 5596 5592 5588 5583 5579 5575
5594 5596 5598 5600 5602 5603 5605 5606 5607 5608 5609 5610 5611 5612 5612 5612 5612 5612 5611 5610 5610 5609 5607 5605 5603 5601 5599 5596 5594 5591 5588 5585 5581 5576 5572 5568 5563 5558
5580 5582 5584 5586 5588 5589 5591 5592 5593 5594 5595 5596 5596 5597 5597 5597 5597 5597 5596 5595 5595 5594 5593 5590 5588 5586 5583 5581 5578 5575 5571 5568 5564 5560 5556 5552 5547 5541
5566 5568 5570 5572 5574 5575 5576 5578 5579 5580 5580 5581 5582 5582 5582 5583 5583 5582 5581 5581 5580 5579 5577 5576 5573 5571 5568 5565 5562 5559 5555 5551 5547 5542 5538 5535 5531 5526
5552 5555 5557 5559 5560 5561 5563 5564 5565 5566 5566 5567 5568 5568 5568 5568 5568 5568 5567 5566 5565 5564 5562 5560 5557 5554 5552 5550 5547 5542 5538 5535 5530 5526 5522 5518 5515 5511
5539 5541 5543 5545 5547 5548 5549 5550 5551 5552 5552 5553 5554 5554 5554 5554 5554 5553 5552 5551 5550 5549 5547 5544 5542 5539 5536 5534 5531 5527 5521 5518 5514 5510 5507 5503 5499 5495
5525 5527 5529 5531 5533 5535 5536 5537 5538 5538 5539 5539 5540 5540 5540 5540 5540 5539 5538 5537 5535 5534 5532 5530 5526 5523 5519 5516 5514 5512 5507 5502 5498 5494 5491 5488 5485 5482
5512 5514 5516 5518 5520 5521 5522 5524 5525 5525 5526 5526 5526 5527 5527 5526 5526 5525 5524 5522 5521 5519 5517 5514 5511 5508 5505 5502 5499 5496 5493 5488 5483 5479 5475 5472 5469 5467
5499 5501 5503 5505 5507 5508 5509 5511 5512 5512 5513 5513 5513 5513 5513 5512 5512 5511 5509 5508 5506 5504 5502 5500 5497 5494 5491 5488 5485 5482 5479 5475 5471 5467 5463 5458 5454 5451